Regional Weather Roundup
Issued by NWS Upton, NY

Current Version | Previous Version | Graphics & Text | Print | Product List | Glossary Off
Versions: 1 2 3 4 5 6 7 8 9 10 11 12 13 14 15 16 17 18 19 20 21 22 23 24 25 26 27 28 29 30 31 32 33 34 35 36 37 38 39 40 41 42 43 44 45 46 47 48 49 50

516
ASUS41 KOKX 031608
RWROKX

REGIONAL WEATHER ROUNDUP
NATIONAL WEATHER SERVICE NEW YORK NY
1100 AM EST SAT DEC 03 2016

NOTE: "FAIR" INDICATES FEW OR NO CLOUDS BELOW 12,000 FEET WITH NO
SIGNIFICANT WEATHER AND/OR OBSTRUCTIONS TO VISIBILITY.

NYZ071-072-176-178-NJZ106-104-031700-
NEW YORK CITY METRO AREA

CITY           SKY/WX    TMP DP  RH WIND       PRES   REMARKS
Central Park   PTSUNNY   44  24  45 NW12G23   30.05F
Wall St Helipt MOSUNNY   48  28  46 VRB6      30.04F
Bronx Bot Gard   N/A     43  25  49 W12       30.05S
LaGuardia APRT PTSUNNY   47  28  47 NW24G31   30.02F
Kennedy INTL   PTSUNNY   48  25  40 NW18G26   30.04S
Breezy Point     N/A     45 N/A N/A NW15G25     N/A
Newark/Liberty MOSUNNY   47  25  42 NW17G29   30.04S
Teterboro      MOSUNNY   45  25  45 NW16G24   30.03S
$$

NYZ177-179-078>081-031700-
LONG ISLAND NEW YORK

CITY           SKY/WX    TMP DP  RH WIND       PRES   REMARKS
Jones Beach      N/A     43 N/A N/A NW20G26     N/A
Matinecock PT    N/A     45 N/A N/A NW22G30     N/A
Farmingdale    MOSUNNY   45  26  47 NW15G26   30.01S
MacArthur/ISP  MOSUNNY   47  27  45 NW21G28   29.97F
Shirley        MOSUNNY   46  28  49 NW17G29   29.98S
Westhampton    MOSUNNY   46  27  47 NW21G31   29.97F
Southampton      N/A     46  32  57 N14       29.93S
Bridgehampton  NOT AVBL
East Hampton     N/A     44  28  53 NW12G24   29.94F
Montauk          N/A     45  28  51 NW16G29   29.94F
$$

NYZ052-065-067-031700-
HUDSON VALLEY

CITY           SKY/WX    TMP DP  RH WIND       PRES   REMARKS
White Plains   PTSUNNY   44  26  49 NW17G26   30.00S
Newburgh       PTSUNNY   41  28  60 NW14G30   30.02R
Montgomery     MOSUNNY   43  26  51 NW15G23   30.01S
Poughkeepsie   CLOUDY    42  27  55 NW8       30.00S
Albany         MOSUNNY   41  26  55 NW24G31   30.01R
$$

NJZ001-105-106-008-010-013-015-019>022-104-031700-
NEW JERSEY

CITY           SKY/WX    TMP DP  RH WIND       PRES   REMARKS
Newark/Liberty MOSUNNY   47  25  42 NW17G29   30.04S
Teterboro      MOSUNNY   45  25  45 NW16G24   30.03S
Caldwell       PTSUNNY   45  25  45 NW22G29   30.05S
Somerville     MOSUNNY   46  27  47 NW15G22   30.05F
Linden           N/A     46  25  43 NW22      30.04F
Sussex         CLOUDY    44  28  53 NW10G22   30.05S
Andover          N/A     43  25  49 N10G22    30.05S
Trenton        PTSUNNY   47  27  45 NW17G26   30.08S
Millville      CLOUDY    48  33  56 W14G21    30.13S
Atlantic City  MOSUNNY   49  30  48 NW30G36   30.09F
Wrightstown    MOSUNNY   47  29  48 NW18G26   30.05F
Toms River     PTSUNNY   48  28  46 W18G29    30.07S
Belmar         PTSUNNY  N/A N/A N/A W12G29    30.05F
$$

PAZ047>061-062-071-031700-
EASTERN PENNSYLVANIA

CITY           SKY/WX    TMP DP  RH WIND       PRES   REMARKS
Philadelphia   PTSUNNY   48  28  46 NW18G26   30.13S
Allentown      CLOUDY    46  28  49 NW12      30.10R
Scranton       CLOUDY    40  30  67 NW8G18    30.08F WCI  34
$$

CTZ002-004>006-009-010-012-RIZ004-006-007-MAZ004-011-015-031700-
SOUTHERN NEW ENGLAND
 IN CT

CITY           SKY/WX    TMP DP  RH WIND       PRES   REMARKS
Bradley INTL   PTSUNNY   44  25  47 NW14G30   29.96S
Hartford       PTSUNNY   44  27  51 NW17G29   29.97S
Danbury        CLOUDY    41  27  57 W8G20     29.99F
Wtrbury/Oxford MOSUNNY   41  25  52 N12G23    29.98S
Bridgeport     SUNNY     47  26  44 NW17G29   29.97F
Meriden        MOSUNNY   46  25  43 NW13G24   29.97S
New Haven      MOSUNNY   45  27  49 NW16G25   29.97S
Chester          N/A     43  25  49 NW20G31   29.93F
Groton         SUNNY     49  27  42 NW24G32   29.91F
Wilimantic     SUNNY     44  27  51 NW13G26   29.93S

 IN RI

CITY           SKY/WX    TMP DP  RH WIND       PRES   REMARKS
Providence     MOSUNNY   45  25  45 NW22G29   29.90R
Block Island   SUNNY     45  28  51 NW17G26   29.91S
Westerly       SUNNY     46  24  42 NW15G26   29.91F
 IN MA

CITY           SKY/WX    TMP DP  RH WIND       PRES   REMARKS
Boston         PTSUNNY   44  28  53 NW20G28   29.87S
Worcester      MOSUNNY   40  24  53 W20G32    29.87R WCI  30
Westfield      CLOUDY    41  27  57 NW17G33   29.95S
Provincetown   NOT AVBL
Nantucket      MOSUNNY   45  27  49 NW20G31   29.84F
$$

ANZ330-335-338-340-345-350-353-355-031700-
COASTAL MARINE OBSERVATIONS


STATION/POSITION TIME  SKY/WX   TEMP    WIND        PRES    VSBY  WAVE
                                AIR SEA DIR/SP/G                  HT/PER
                 (UTC)          (F)     (DEG/KT/KT) (MB)    (MI)  (FT/S)
NY HARB ENTRANCE 1550            45 54  310/ 19/ 25 1016.6          4/ 4
20 S FIRE ISLAND 1450            45 54  310/ 25/ 31 1015.3          6/ 6
GREAT SOUTH BAY  1530            44 45                N/A
23 SSW MONTAUK P 1550            45 56  300/ 27/ 33 1013.5          7/ 7
15 E BARNEGAT LI 1530               54                N/A           5/ 4
HUDSON CANYON    1450            47 58              1015.2         11/ 8
KINGS POINT      1548            44 48              1016.6
EXECUTION ROCKS  1545            46     300/ 16/ 23   N/A
CENTRAL LI SOUND NOT AVBL
EASTERN LI SOUND NOT AVBL
ROBBINS REEF     1548            44     300/ 24/ 27 1016.8
$$


>>>>>>>>>>>>>>>>>>>>>>>>>>>> KEY <<<<<<<<<<<<<<<<<<<<<<<<<<<
>                                                          <
>     SKY/WX - Sky Condition/Present Weather               <
>     TMP    - Temperature in Fahrenheit                   <
>     DP     - Dew Point in Fahrenheit                     <
>     RH     - Relative Humidity in Percent                <
>     WIND   - Direction (from) and Speed in MPH           <
>     PRES   - Mean Sea Level Pressure (inches of Hg)      <
>     WCI    - Wind Chill Index                            <
>     VSB    - VISIBILITY IN MILES                         <
>     HX     - HEAT INDEX                                  <
>     TC     - TEMPERATURE IN CELSIUS                      <
>     VRB    - VARIABLE WIND DIRECTION                     <
>                                                          <
>>>>>>>>>>>>>>>>>>>>>>>>>>>> KEY <<<<<<<<<<<<<<<<<<<<<<<<<<<




USA.gov is the U.S. government's official web portal to all federal, state and local government web resources and services.